Lapse_Rate
4.9 4.7 6.4 6.4 6.6 6.7 6.2 5.5 5.6 6.3 6.4 6.5 6.2 5.8 5.9 5.9 6.0 6.1 6.0 6.6 7.1 7.0 6.5 6.7 6.8 6.9 6.7 6.5 6.4 6.6 6.3 5.9 5.9 6.0 5.7 5.6 5.7 5.8 6.6 6.4 6.1 6.4 6.7
4.3 4.4 6.7 7.4 7.3 6.9 6.7 6.2 5.9 6.1 6.3 6.3 6.3 6.1 6.1 5.9 6.0 6.3 6.3 6.6 6.5 6.9 6.4 6.7 6.5 6.4 6.3 6.1 6.1 6.0 6.0 6.5 6.5 6.4 6.3 6.2 5.8 5.8 5.8 5.9 5.7 5.5 5.7
4.1 4.8 6.9 7.7 7.5 6.7 6.6 7.1 6.4 6.0 6.2 6.2 6.4 6.3 6.3 6.4 6.5 6.4 6.3 6.4 6.4 6.7 6.5 7.2 6.2 6.2 6.3 6.6 6.5 6.7 6.5 6.4 6.5 6.2 5.9 5.3 5.5 5.8 5.8 5.7 5.5 5.4 5.3
4.6 4.8 5.7 6.8 7.0 7.4 7.4 7.8 7.6 6.3 6.4 6.3 6.8 6.4 6.5 6.6 6.6 6.5 6.5 6.4 6.5 6.8 6.9 7.2 6.4 6.5 6.6 6.6 6.5 6.6 6.5 6.8 6.7 6.4 5.5 5.5 5.9 5.9 5.7 5.8 5.5 5.3 5.2
4.7 4.6 5.8 6.6 7.0 6.9 6.8 6.9 7.1 6.6 6.1 6.1 6.3 6.4 6.7 7.1 6.6 6.6 6.4 6.5 6.6 6.6 6.7 6.4 6.4 6.5 6.6 6.7 6.6 6.4 6.3 6.4 6.6 6.4 5.1 5.4 5.4 6.1 6.1 5.6 5.5 5.2 5.0
4.4 5.0 6.0 6.5 6.8 6.7 7.4 6.3 6.0 6.3 6.1 5.9 6.1 6.4 6.5 6.6 7.1 6.5 6.6 6.6 6.7 6.5 6.3 6.4 6.5 6.6 6.6 6.5 6.6 6.7 6.6 6.5 5.8 5.2 5.1 4.8 4.9 5.7 5.7 5.5 5.5 5.5 5.1
4.2 4.7 6.0 6.5 6.4 6.7 6.5 6.1 6.0 6.6 6.2 6.0 6.4 6.4 6.6 6.6 6.6 6.5 6.5 6.5 6.4 6.4 6.2 6.4 6.4 6.3 6.4 6.4 6.7 6.7 6.4 6.5 5.1 4.6 4.1 4.1 4.6 5.4 5.8 5.7 5.6 5.3 5.2
4.1 4.9 6.0 6.5 6.6 6.4 6.4 6.3 6.4 6.2 6.2 6.3 6.3 6.3 6.5 6.8 6.7 6.8 7.0 6.4 6.0 6.3 6.1 6.0 6.1 6.3 6.5 6.7 6.7 6.4 6.2 6.8 5.7 4.5 3.9 3.9 4.7 5.3 5.5 5.3 5.3 5.3 5.4
4.9 4.9 5.2 6.0 6.4 6.5 6.4 6.4 6.3 6.5 6.2 6.3 6.7 6.3 6.6 6.8 6.7 6.4 6.2 6.2 5.9 5.9 5.9 5.8 6.0 6.3 6.1 6.6 6.7 6.2 6.2 6.0 4.9 4.3 4.1 3.8 4.5 5.1 5.4 5.2 5.2 5.2 5.3
4.2 4.3 4.3 5.0 5.5 5.6 6.1 6.6 6.4 6.7 6.4 6.7 6.4 6.6 6.5 6.4 6.3 6.2 5.9 6.0 6.1 5.9 5.7 5.5 5.3 5.5 6.0 6.1 6.2 5.9 6.0 5.5 4.8 4.3 3.9 3.8 4.5 5.0 5.3 5.2 5.0 5.0 5.1
4.8 4.0 4.1 3.8 4.5 4.6 5.0 6.2 6.6 6.9 6.5 7.0 6.6 6.4 5.5 5.2 5.1 5.5 5.5 5.7 6.1 5.9 5.7 5.7 5.4 5.3 5.7 5.7 5.8 5.8 5.7 4.3 4.4 4.0 3.7 4.1 4.3 4.7 5.0 4.9 5.1 5.2 5.4
3.9 3.6 3.2 3.6 3.5 4.1 5.3 4.8 5.2 5.2 5.1 4.8 5.0 4.6 4.5 4.6 4.5 5.1 5.2 5.4 5.9 5.9 5.8 5.8 5.7 5.9 5.6 5.0 5.0 5.1 4.8 4.3 4.0 3.4 3.2 4.0 3.6 4.4 4.9 5.2 5.3 5.4 5.6
3.9 3.4 3.0 2.8 2.8 3.4 4.0 3.6 3.7 4.0 4.4 4.8 4.9 4.7 4.3 4.0 3.8 3.8 3.5 3.8 4.1 4.6 4.2 4.3 4.5 4.6 4.5 4.5 4.5 4.6 4.5 4.0 3.5 3.3 3.7 4.0 3.7 4.6 5.1 5.5 5.8 5.9 5.5
3.6 3.3 2.9 2.5 2.5 3.1 3.3 2.9 3.6 3.9 4.1 3.8 3.9 4.1 3.7 2.8 2.5 2.7 2.6 3.2 3.4 3.5 3.2 3.2 2.9 3.3 3.7 3.9 3.6 3.0 3.2 3.4 3.4 3.0 3.5 3.8 4.1 5.1 6.2 6.2 5.2 5.6 7.4
4.0 3.7 3.4 2.6 2.6 3.2 2.9 3.2 3.4 3.4 3.7 3.7 3.5 3.7 3.6 3.0 2.8 3.2 3.0 2.9 3.4 3.0 2.7 2.2 2.1 2.2 2.6 3.0 3.4 2.8 2.5 3.3 3.7 3.5 3.3 3.0 3.8 4.6 3.3 3.5 3.5 4.1 5.7
3.8 3.0 3.2 2.8 2.8 2.7 2.6 3.0 2.8 3.4 4.1 3.3 3.2 3.3 3.8 3.7 3.0 2.5 2.1 2.3 1.9 2.1 2.2 2.0 1.6 2.0 2.2 3.2 3.5 3.9 3.4 3.5 3.7 4.0 3.5 3.2 3.1 3.1 3.6 4.5 3.4 3.7 5.6
3.7 3.3 3.1 2.6 2.5 2.3 2.6 3.0 3.0 3.2 4.2 3.3 3.4 3.3 4.1 3.6 2.9 1.8 1.3 1.2 1.1 1.6 1.6 1.5 1.5 2.0 2.4 2.9 2.8 3.1 3.7 4.0 4.5 3.6 3.3 2.5 3.0 3.2 3.5 3.5 1.5 2.3 4.9
3.8 2.1 2.5 4.6 2.5 2.0 2.0 2.8 3.2 3.8 3.7 3.2 3.4 4.3 4.2 3.6 3.5 2.4 1.2 0.9 1.5 1.8 2.0 0.9 0.8 1.7 1.4 2.5 2.0 1.9 2.2 2.8 2.9 2.6 2.1 1.6 1.8 2.5 2.7 2.5 1.7 3.2 5.1
2.9 1.8 2.7 3.1 2.5 2.2 2.0 3.1 2.7 3.6 3.1 3.6 4.4 4.4 4.2 3.9 3.1 2.1 0.9 0.4 1.3 1.5 1.2 1.4 0.8 0.9 1.0 1.9 2.4 1.8 1.7 1.3 1.8 2.3 1.9 1.5 1.0 1.4 1.9 2.1 2.8 4.0 4.6
3.3 2.6 3.4 3.5 2.7 2.8 2.7 2.3 2.1 2.2 2.4 3.6 4.1 3.9 4.0 3.6 3.3 1.9 0.9 0.6 0.7 0.6 0.8 0.8 1.3 0.1 0.1 0.6 3.6 2.1 1.2 0.9 -0.1 0.0 1.1 1.1 1.9 1.9 1.3 2.9 2.5 3.8 4.2
4.1 3.4 3.1 2.8 2.7 2.5 2.5 2.5 2.5 2.9 2.6 3.0 3.3 3.8 3.8 3.9 3.3 1.7 0.5 0.0 0.3 0.2 1.1 1.2 1.1 1.0 0.2 -0.4 1.2 0.5 1.0 0.6 0.7 -0.6 -0.1 -0.1 1.4 2.1 1.8 1.7 2.2 2.4 3.0
4.2 3.6 3.6 3.2 2.9 3.2 2.7 2.4 2.9 2.5 2.8 2.9 2.9 3.3 3.8 3.9 3.4 2.0 1.2 0.8 1.3 0.5 0.5 1.2 1.2 0.4 -0.1 -0.6 0.8 -0.6 1.0 1.4 0.5 0.9 -0.1 1.0 1.0 0.8 0.9 1.5 1.8 2.8 3.1
4.6 3.7 3.8 3.3 3.1 2.5 2.9 2.5 2.5 2.7 2.7 3.3 3.1 3.1 2.9 3.4 3.8 2.8 1.4 1.0 0.9 -0.1 0.6 1.0 0.9 1.2 0.7 -0.1 0.1 1.0 1.5 2.4 -0.7 0.7 0.4 -0.4 0.4 0.5 0.2 0.4 2.2 3.3 3.3
4.3 4.3 3.9 3.0 2.7 3.0 2.3 2.9 3.5 3.8 3.7 2.9 3.0 3.2 3.3 3.7 3.3 3.0 2.1 1.6 1.4 0.5 0.7 1.1 1.4 0.7 -0.1 1.6 0.3 0.4 0.3 0.6 2.1 1.6 0.9 -0.1 0.3 0.2 0.3 0.5 1.8 2.6 2.9
4.8 4.4 3.6 2.8 2.6 2.7 2.3 2.6 2.6 3.4 2.7 2.4 2.7 3.7 3.4 2.9 3.0 2.9 2.8 2.2 1.7 1.3 1.6 1.9 2.0 1.0 0.8 1.0 1.4 0.7 0.9 0.7 0.6 1.6 1.9 1.7 0.7 1.0 1.9 1.4 1.6 2.0 2.5
4.8 4.6 3.8 3.1 2.8 2.4 2.2 2.6 3.0 3.0 2.6 2.3 2.7 3.2 2.9 3.1 2.8 3.1 3.1 2.8 2.8 2.1 2.5 3.0 2.9 2.7 2.6 2.0 1.1 1.2 2.0 2.7 2.7 2.0 1.8 1.3 1.2 1.6 1.4 1.7 1.7 1.1 2.2
Wind_Speed
4 5 6 8 10 10 12 12 12 9 13 12 14 14 14 14 13 13 11 10 14 15 13 14 15 15 16 16 16 16 17 16 16 14 14 12 11 12 12 12 11 10 11
5 7 8 10 10 11 12 10 11 9 11 13 13 14 13 13 11 12 11 11 13 14 14 14 14 14 15 15 15 15 16 15 14 15 15 12 12 11 9 9 9 9 9
4 6 7 8 8 6 7 10 8 11 11 12 13 14 13 11 11 13 13 12 13 14 14 14 15 14 14 14 15 15 14 13 12 12 12 11 10 9 8 8 8 7 7
7 6 6 6 4 5 8 12 9 10 8 10 11 12 12 10 11 11 13 12 13 12 14 13 13 14 13 13 13 12 10 10 12 11 8 7 8 8 7 7 7 6 6
5 7 5 6 8 7 10 13 8 8 9 10 10 10 10 10 9 10 11 11 12 11 13 11 11 11 11 11 10 8 6 3 3 5 6 7 7 6 7 6 6 5 3
6 8 8 8 7 10 14 14 9 4 9 10 10 10 10 8 10 9 10 11 11 10 9 9 9 9 8 8 6 5 3 3 6 11 8 6 7 7 6 5 4 3 4
5 8 10 12 11 11 11 11 10 5 8 8 8 8 8 9 9 8 9 9 8 7 7 7 6 6 5 4 5 6 7 2 11 9 7 7 6 7 6 5 4 4 6
5 7 11 12 11 11 11 10 8 7 6 7 7 7 7 9 9 9 10 8 7 5 4 5 4 4 4 4 5 7 11 9 8 6 5 6 6 5 4 4 4 6 7
6 5 9 8 12 12 11 9 9 8 7 6 6 7 6 8 8 7 6 6 6 5 5 6 6 5 5 4 4 6 7 6 6 4 4 6 5 4 5 5 7 8 9
4 5 6 7 9 10 11 11 10 8 7 7 6 6 5 5 5 4 4 4 4 3 3 4 5 6 6 5 4 4 5 4 6 5 6 7 6 6 7 9 10 10 11
3 3 5 7 9 7 7 8 8 6 6 6 6 6 4 2 3 2 1 2 2 3 3 3 4 5 6 7 7 5 4 2 4 6 7 8 9 9 10 11 12 12 13
5 5 5 5 6 8 6 5 6 5 5 5 4 4 3 2 1 2 3 4 5 6 7 7 7 8 8 9 10 7 4 5 6 8 10 12 13 11 11 12 13 13 15
7 3 4 4 4 3 4 5 4 4 5 4 5 5 4 1 3 6 4 4 5 6 7 9 9 8 8 9 10 12 13 10 9 10 12 14 12 11 12 13 15 15 15
9 6 5 6 5 5 4 6 5 3 5 4 2 8 3 2 3 2 3 4 4 6 7 7 8 9 11 13 11 10 12 10 8 8 8 8 10 11 17 27 43 41 30
7 6 5 4 4 6 6 5 5 5 4 5 7 7 4 4 2 2 4 5 4 6 6 6 7 6 6 9 8 8 8 10 8 5 4 4 5 8 15 19 25 40 29
6 7 7 6 5 7 4 4 4 4 6 7 6 3 3 4 4 5 2 2 5 5 4 2 4 4 3 4 5 5 3 3 1 1 3 3 9 16 11 4 7 17 20
7 9 9 8 7 5 4 5 4 6 6 7 6 4 4 8 11 9 5 2 3 2 4 7 6 2 3 1 5 4 6 6 2 3 6 8 10 13 10 7 4 1 11
6 9 8 8 6 5 3 4 3 5 5 7 6 7 7 11 11 9 4 4 4 5 5 4 3 3 3 3 4 4 4 8 6 1 2 6 12 2 3 6 11 9 11
9 8 7 6 7 6 4 5 3 7 5 6 9 12 13 11 6 5 4 4 4 4 3 1 2 2 2 3 4 3 4 4 2 1 4 10 11 5 10 2 8 11 13
9 7 8 6 5 5 3 2 0 1 1 6 6 11 14 9 8 6 6 5 5 3 1 2 4 4 3 2 3 2 2 3 0 4 4 7 8 11 10 11 14 11 13
8 7 7 7 6 5 2 2 1 3 2 2 7 12 12 11 10 8 4 4 6 3 3 3 2 4 5 4 2 3 2 4 1 4 5 4 4 7 11 13 10 6 9
13 10 9 9 9 7 4 2 3 2 2 1 3 2 8 10 7 8 5 2 2 2 3 2 3 1 2 4 2 2 3 3 3 1 3 4 4 4 6 9 9 4 2
12 10 11 10 10 8 7 3 2 2 1 2 1 2 5 10 6 5 7 6 3 1 2 1 2 3 3 3 3 3 2 1 3 0 3 4 4 1 3 7 11 4 6
13 10 9 8 7 7 9 5 5 4 3 3 3 3 4 8 6 7 6 5 3 2 3 2 2 2 4 3 1 3 2 2 2 4 1 3 2 4 3 3 4 3 5
13 12 8 8 8 7 8 7 5 4 2 1 2 3 3 3 5 6 8 7 3 3 3 4 3 3 3 3 2 1 0 0 2 1 3 6 2 2 1 4 5 8 7
10 10 9 9 8 7 7 7 7 8 5 3 2 3 3 3 4 8 9 7 5 4 4 2 2 3 2 1 1 2 2 1 1 1 2 3 2 4 3 3 1 5 6
Wind_Direction
206 205 146 155 132 123 108 96 92 88 106 102 101 98 97 96 100 104 104 110 110 110 107 107 103 102 102 106 104 112 115 110 106 108 115 116 110 105 109 114 114 108 118
144 191 141 145 139 128 117 103 98 89 97 101 101 99 96 94 104 106 106 101 105 103 107 103 101 99 106 109 114 117 116 115 108 104 108 119 120 111 113 113 111 111 115
145 201 166 141 122 97 108 94 88 90 88 96 93 97 103 104 106 105 111 114 113 117 117 113 113 115 114 112 114 116 118 116 108 107 106 101 109 112 118 120 123 125 130
169 197 246 206 195 123 106 92 86 88 97 96 94 99 105 104 99 107 109 115 112 107 111 111 113 111 112 114 114 112 116 116 116 113 111 114 115 126 132 138 144 141 141
158 189 206 185 173 119 110 106 118 125 106 97 97 101 111 107 106 101 100 108 104 103 103 108 110 114 112 106 100 91 90 142 202 140 130 130 131 146 160 149 158 167 187
174 183 172 173 157 143 133 114 96 100 107 105 111 108 105 109 109 100 103 98 98 102 99 106 114 115 105 103 98 68 32 343 118 140 144 156 150 167 161 177 194 196 196
170 182 173 165 156 148 137 138 159 153 103 103 113 108 117 100 99 103 116 108 97 94 106 104 105 102 100 83 49 21 351 129 133 137 157 169 172 177 182 183 196 213 222
156 183 160 156 156 151 146 150 141 122 119 116 116 117 110 100 88 87 100 95 95 109 100 88 74 60 49 43 29 13 21 147 141 152 178 189 186 183 194 201 219 239 249
140 137 144 166 160 158 153 152 139 144 132 130 128 112 110 91 83 90 88 103 97 77 60 52 41 29 21 26 33 25 41 105 134 152 203 209 197 208 227 239 244 254 263
127 139 154 168 154 160 158 160 148 149 133 125 124 121 107 95 100 95 62 57 58 43 37 33 19 358 347 359 11 9 34 80 165 188 231 227 211 230 246 253 255 260 269
127 142 154 166 154 167 152 163 155 140 141 132 122 125 104 99 67 31 346 5 356 341 347 355 348 333 336 340 341 339 350 60 182 225 225 227 225 231 245 256 268 275 278
170 183 179 169 163 163 157 149 148 146 132 121 140 126 147 176 239 257 310 310 320 327 325 324 318 320 331 327 317 316 290 252 250 236 235 228 230 237 254 267 274 281 286
179 183 185 159 137 147 130 138 165 162 140 151 164 165 180 225 262 297 314 330 338 332 333 316 322 323 311 290 283 284 284 279 259 249 248 247 249 259 274 288 292 290 286
178 187 183 180 161 135 141 180 181 157 159 169 216 198 156 226 332 320 328 305 303 310 291 299 306 306 295 288 283 258 258 265 259 249 243 290 289 307 345 16 9 336 326
184 187 196 187 186 156 179 163 171 201 204 225 236 218 179 103 120 267 266 257 271 340 332 316 299 288 284 292 289 257 237 240 240 222 257 343 324 55 72 56 348 298 317
181 184 188 191 202 173 161 188 206 209 224 226 231 202 150 162 162 141 118 107 77 51 32 20 8 4 345 324 336 360 266 254 157 172 257 238 128 123 113 84 217 265 311
201 182 188 182 194 185 192 206 200 231 238 211 195 202 219 171 156 144 149 122 97 65 52 43 36 28 79 80 58 23 84 105 88 215 226 180 173 149 146 149 171 259 328
181 190 182 190 174 182 203 229 218 244 235 198 160 199 215 186 163 153 158 127 138 104 71 41 4 41 19 77 101 58 47 75 75 99 210 245 241 238 264 86 81 50 351
179 190 186 190 169 178 183 214 230 227 247 183 182 199 187 191 181 150 109 111 150 94 60 121 11 69 56 73 108 99 95 78 40 345 289 273 292 320 257 132 65 24 343
174 193 184 189 169 164 121 119 55 305 250 176 182 190 174 186 197 155 124 128 148 142 359 243 98 34 44 21 63 87 75 110 302 290 260 307 309 331 337 346 26 357 325
174 176 191 171 172 150 148 147 88 222 209 173 187 197 173 181 172 155 124 141 165 180 157 260 75 71 26 21 33 325 16 310 202 263 253 277 326 334 333 355 341 309 311
183 181 186 182 181 175 156 167 166 178 225 120 172 215 179 198 188 172 162 152 187 121 90 73 81 85 62 14 127 50 0 336 290 193 294 291 258 301 324 314 288 38 306
186 187 186 184 184 171 155 132 99 59 59 105 308 184 236 234 192 178 181 183 209 76 102 185 109 113 127 14 355 132 61 304 337 231 234 251 242 326 295 301 295 63 22
192 190 184 174 177 185 165 154 158 177 171 209 192 190 224 230 187 180 175 186 188 145 219 210 161 146 102 187 301 65 48 119 101 338 297 214 191 234 251 268 308 121 130
188 189 182 167 172 189 169 168 159 174 201 234 194 215 235 241 219 217 215 212 200 197 216 215 159 144 170 151 177 121 81 192 100 106 301 325 20 168 168 235 194 179 165
187 187 176 176 183 193 174 177 174 175 181 189 227 220 199 225 216 222 219 218 202 225 223 215 150 176 193 221 140 167 180 164 130 176 275 292 276 316 19 9 107 149 152